星链-31520 (STARLINK-31520 )

导读

STARLINK-31520是美国太空探索技术公司(SpaceX)星链(Starlink)卫星互联网项目的低轨通信卫星,于北京时间2024年3月11日发射。 该卫星运行在近地轨道,属于星链第二代组网卫星,旨在补充完善全球卫星互联网星座,为全球用户,尤其偏远网络薄弱地区提供高速低延迟宽带服务,具备自主变轨避撞能力,设计寿命约5至7年,目前已在轨运行近两年。

Basic Information
目录编号:
59210
目录名称:
STARLINK-31520
国际标识:
2024-046K
轨道中心:
EARTH
卫星名称:
星链-31520
卫星全名:
星链-31520 (STARLINK-31520 )
卫星状态:
在轨 (已飞行914 天)
发射日期:
2024-03-11 UTC
国别 :
美国 (US)
星等 :
--
This satellite is enrolled in the Space Conjunction Data Service (SCDS) and the current flight risk assessment level is: High Risk
Orbit Information
数据来源 国际轨道数据 AOE轨道数据
星历时间 2026-09-11T22:16:35+0800
6小时前
查看轨道信息
2026-09-10T12:00:00+0800
1天前
查看轨道信息
半长轴 6840.851km 6840.97km
偏心率 0.0001447 0.0001559
轨道倾角 53.162° 53.160°
近地点辐角 78.820° 63.646°
升交点赤经 11.036° 17.714°
平近点角 281.297° 323.005°
近地点 461.724km 461.766km
远地点 463.704km 463.9km
周期 93.848分钟 93.850分钟
每日圈数 15.343965 15.343564
Detailed Information
固有亮度:
5
最大亮度:
0.3
卫星平台:
Starlink v2.0 mini
覆盖范围:
全球
运营商:
太空探索技术公司
运营商所在国:
美国
制造商(研发单位):
太空探索技术公司
制造商所在国:
美国
使用方式:
暂无
Satellite Introduction
星链(Starlink)计划是由太空探索技术公司(SpaceX)提出的一个巨型低轨卫星互联网星座项目,计划在2019年至2024年间在太空搭建由约1.2万颗卫星组成的“星链”网络,其中1584颗将部署在地球上空550千米处的近地轨道,并从2020年开始工作。该卫星仍在工作。
2D Orbit Map
3D Orbit Map
Orbit Altitude Analysis Chart
Orbit Inclination Analysis Chart
Orbit Comprehensive Analysis Chart
View Comprehensive Chart
Conjunction Data List
Event ID Objects TCA Miss Dist (km) Collision Risk Probability Collision Risk Index (CRI) Action
CDM_260911-190305-921006-854622
2026-09-11T
19:03:07+0000
0.583 km
远距离
1.238874E-4 高风险 0.77
CDM_260913-154705-921006-005421
2026-09-13T
15:47:41+0000
0.566 km
远距离
1.011942E-4 高风险 0.75
CDM_260912-191605-921006-854621
2026-09-12T
19:16:50+0000
0.876 km
远距离
3.651103E-5 中风险 0.66
CDM_260911-172905-921006-854622
2026-09-11T
17:29:19+0000
1.179 km
极远距离
1.317316E-5 中风险 0.57
CDM_260912-205005-921006-854621
2026-09-12T
20:50:38+0000
1.596 km
极远距离
4.75894E-6 低风险 0.49
CDM_260913-141305-921006-005421
2026-09-13T
14:13:54+0000
1.533 km
极远距离
4.012543E-6 低风险 0.47
CDM_260911-203605-921006-854621
2026-09-11T
20:36:54+0000
2.366 km
极远距离
1.714177E-6 低风险 0.4
CDM_260913-145005-405805-921021
2026-09-13T
14:50:02+0000
2.798 km
极远距离
1.290087E-6 低风险 0.37
CDM_260912-174305-921006-854622
2026-09-12T
17:43:03+0000
2.899 km
极远距离
1.236038E-6 低风险 0.37
CDM_260911-155505-921006-854622
2026-09-11T
15:55:32+0000
2.911 km
极远距离
1.230074E-6 低风险 0.37
Miss Distance Evolution Trend with All Objects
Collision Probability Evolution Trend with All Objects